[[{"header":{"parameterUnit":"m.s-1","parameterCategory":1,"la1":30.2991,"la2":30.254,"lo1":-89.0895,"lo2":-89.0444,"dy":0.0017,"dx":0.0017,"nx":28,"ny":28,"refTime":"2025-12-02T03:00:00:Z","depth":0,"parameterNumber":2,"parameterNumberName":"U-component_of_WINDS"},"data":[0,0,0,0,0,0,0,0,0,0,0,0,0,0,0,0,0,0,0,0,0,0,0,0,0,0,0,0,0,0,0,0,0,0,0,0,0,0,0,0,0,0,0,0,0,0,0,0,0,0,0,0,0,0,0,0,0,0,-1.4064,-1.4063,0,-1.3982,-1.3982,-1.3981,-1.3899,-1.3898,-1.3897,-1.3896,-1.381,-1.3808,-1.3807,0,0,0,0,0,0,0,0,0,0,0,0,0,-1.4145,-1.4144,-1.4064,-1.4063,-1.4062,-1.3983,-1.3981,-1.398,-1.39,-1.3898,-1.3897,-1.3896,-1.381,-1.3808,-1.3807,0,0,0,0,0,0,0,0,0,0,0,0,0,-1.4091,-1.4144,-1.4064,-1.4012,-1.4007,-1.3983,-1.3981,-1.398,-1.39,-1.3898,-1.3897,-1.3895,-1.3811,-1.3809,-1.3807,-1.3827,0,0,-1.3801,-1.38,0,0,0,0,0,0,0,0,-1.4094,-1.4088,-1.4021,-1.4016,-1.401,-1.395,-1.3978,-1.3928,-1.39,-1.394,-1.3896,-1.3894,-1.3857,-1.3851,-1.3839,-1.3823,-1.3819,-1.3801,-1.3799,-1.3798,-1.3798,0,0,0,0,0,0,0,-1.4098,-1.4091,-1.4032,-1.402,-1.4013,-1.3991,-1.3982,-1.3968,-1.3909,-1.3937,-1.3931,-1.3922,-1.3854,-1.3842,-1.3837,-1.3818,-1.3801,-1.3799,-1.3798,-1.3797,-1.381,-1.3811,0,0,0,0,0,0,-1.4111,-1.4095,-1.4034,-1.4029,-1.4049,-1.3991,-1.3981,-1.397,-1.3909,-1.3898,-1.3924,-1.3919,-1.3846,-1.3839,-1.3833,-1.3852,-1.3798,-1.3797,-1.3796,-1.3808,-1.381,-1.3812,0,0,0,0,0,0,-1.4113,-1.4106,-1.4037,-1.406,-1.405,-1.3992,-1.3981,-1.397,-1.3957,-1.3899,-1.3887,-1.3923,-1.3844,-1.3836,-1.3829,-1.3848,-1.3796,-1.3794,-1.3807,-1.3809,-1.3811,-1.3889,0,0,0,0,0,0,-1.4115,-1.4107,-1.4116,-1.4061,-1.4049,-1.4036,-1.3982,-1.3969,-1.3955,-1.3947,-1.3895,-1.3884,-1.3842,-1.3832,-1.3827,-1.3844,-1.3792,-1.3805,-1.3808,-1.381,-1.3885,-1.3894,-1.3902,0,0,0,0,0,-1.4118,-1.4141,-1.4116,-1.411,-1.4059,-1.4037,-1.403,-1.3982,-1.3957,-1.3963,-1.3925,-1.3886,-1.3846,-1.3832,-1.3825,-1.3842,-1.3803,-1.3807,-1.381,-1.3881,-1.3892,-1.3901,0,0,0,0,0,0,-1.4198,-1.4133,-1.4105,-1.4111,-1.408,-1.4024,-1.4031,-1.3996,-1.3972,-1.3966,-1.3906,-1.3895,-1.3894,-1.3866,-1.3852,-1.3857,-1.3819,-1.3821,-1.3875,-1.3885,-1.3893,-1.39,-1.3791,0,0,0,0,0,-1.4216,-1.4206,-1.4148,-1.4159,-1.4145,-1.4091,-1.408,-1.4045,-1.4011,-1.3997,-1.3959,-1.3926,-1.3905,-1.3893,-1.3872,-1.3879,-1.3866,-1.3887,-1.3896,-1.3903,-1.3906,-1.3906,-1.3915,-1.3823,-1.3823,-1.3823,0,0,-1.4254,-1.4217,-1.4214,-1.4174,-1.4146,-1.4135,-1.4081,-1.4072,-1.4062,-1.3995,-1.3986,-1.3956,-1.3915,-1.3915,-1.3913,-1.3893,-1.3928,-1.3908,-1.3914,-1.3913,-1.3911,-1.392,-1.3927,-1.3826,-1.3825,-1.3825,0,0,-1.4317,-1.4288,-1.4293,-1.4266,-1.4225,-1.4188,-1.419,-1.4138,-1.4116,-1.4105,-1.4055,-1.4041,-1.4008,-1.3981,-1.3962,-1.4012,-1.3974,-1.4006,-1.4051,-1.4052,-1.4059,-1.4065,-1.4082,-1.4089,-1.4009,-1.4009,-1.4009,0,-1.4369,-1.4352,-1.43,-1.4293,-1.4277,-1.4216,-1.4219,-1.4195,-1.4149,-1.4137,-1.4115,-1.4071,-1.4039,-1.4031,-1.4043,-1.403,-1.4028,-1.4013,-1.4063,-1.4068,-1.4073,-1.4088,-1.4095,-1.4013,-1.4013,-1.4012,-1.4012,0,-1.4417,-1.4405,-1.4413,-1.4371,-1.4354,-1.4353,-1.43,-1.4289,-1.4255,-1.422,-1.4209,-1.4168,-1.4136,-1.4131,-1.4098,-1.4117,-1.4106,-1.4074,-1.4035,-1.4087,-1.41,-1.4106,-1.4019,-1.4018,-1.4016,-1.4015,0,0,-1.453,-1.4457,-1.4461,-1.444,-1.4389,-1.4378,-1.4373,-1.4342,-1.4334,-1.4303,-1.4296,-1.4267,-1.4237,-1.4216,-1.4178,-1.4179,-1.4219,-1.4146,-1.4144,-1.4161,-1.4237,-1.4262,-1.427,-1.4193,-1.4194,-1.4195,-1.424,0,-1.4584,-1.4573,-1.4525,-1.4527,-1.4515,-1.4455,-1.445,-1.4417,-1.4383,-1.4366,-1.4328,-1.4309,-1.4271,-1.4257,-1.4255,-1.4215,-1.4234,-1.4211,-1.4185,-1.4185,-1.4198,-1.4277,-1.4304,-1.4348,-1.4245,-1.4246,-1.4247,0,-1.4647,-1.4621,-1.4622,-1.4569,-1.4562,-1.4559,-1.4526,-1.4511,-1.4471,-1.4446,-1.4422,-1.438,-1.4368,-1.4331,-1.4313,-1.4299,-1.4284,-1.4262,-1.4263,-1.4259,-1.422,-1.4275,-1.4362,-1.4369,-1.4254,-1.4254,-1.4253,0,-1.473,-1.4694,-1.469,-1.4674,-1.4612,-1.4611,-1.4585,-1.4543,-1.4527,-1.4497,-1.4486,-1.4455,-1.4438,-1.4414,-1.4363,-1.4341,-1.435,-1.4309,-1.4328,-1.433,-1.4334,-1.4335,-1.442,-1.4325,-1.4324,-1.4324,-1.4324,0,-1.4796,-1.4799,-1.4726,-1.4724,-1.4724,-1.4667,-1.4669,-1.4637,-1.46,-1.4588,-1.4534,-1.4524,-1.4457,-1.4439,-1.4399,-1.4389,-1.4382,-1.436,-1.435,-1.4366,-1.4369,-1.4356,-1.4352,-1.4326,-1.4326,-1.4325,-1.4325,0,-1.489,-1.4841,-1.4832,-1.4774,-1.4759,-1.4762,-1.4711,-1.4705,-1.4667,-1.4654,-1.4647,-1.4587,-1.4562,-1.4509,-1.447,-1.4442,-1.4442,-1.4423,-1.4457,-1.445,-1.4472,-1.4471,-1.4553,-1.456,-1.4461,-1.4462,-1.4462,0,-1.4936,-1.4937,-1.4879,-1.4868,-1.4844,-1.4827,-1.481,-1.4753,-1.4737,-1.469,-1.4689,-1.466,-1.4635,-1.4597,-1.4549,-1.4518,-1.4497,-1.4528,-1.4492,-1.4508,-1.4497,-1.4498,-1.4497,-1.4537,-1.4538,-1.4539,-1.454,0,-1.5023,-1.4998,-1.4977,-1.4947,-1.4928,-1.4901,-1.4871,-1.4864,-1.4799,-1.4784,-1.4759,-1.4738,-1.4698,-1.4669,-1.463,-1.46,-1.4559,-1.4551,-1.4554,-1.4571,-1.459,-1.4579,-1.4479,-1.455,-1.4549,-1.4548,-1.4548,-1.4547,-1.5094,-1.5091,-1.505,-1.5027,-1.4998,-1.4971,-1.4962,-1.4923,-1.4901,-1.4864,-1.4831,-1.4808,-1.4764,-1.4708,-1.4681,-1.4661,-1.464,-1.4644,-1.4645,-1.4648,-1.4654,-1.4593,-1.4653,-1.4653,-1.4653,-1.4652,-1.4652,0,-1.5178,-1.5148,-1.5128,-1.5087,-1.5069,-1.5031,-1.4995,-1.4982,-1.4963,-1.4927,-1.4902,-1.4871,-1.4842,-1.4791,-1.4757,-1.475,-1.473,-1.4743,-1.4744,-1.4737,-1.4675,-1.4676,-1.476,-1.476,-1.476,-1.476,-1.476,-1.476,-1.522,-1.5213,-1.5183,-1.5161,-1.5129,-1.5108,-1.509,-1.5064,-1.5034,-1.5003,-1.4979,-1.4946,-1.4902,-1.4864,-1.4835,-1.482,-1.481,-1.483,-1.4809,-1.4752,-1.4742,-1.4732,-1.4733,-1.4828,-1.4828,-1.4873,-1.4874,-1.4874]},{"header":{"parameterUnit":"m.s-1","parameterCategory":1,"la1":30.2991,"la2":30.254,"lo1":-89.0895,"lo2":-89.0444,"dy":0.0017,"dx":0.0017,"nx":28,"ny":28,"refTime":"2025-12-02T03:00:00:Z","depth":0,"parameterNumber":3,"parameterNumberName":"V-component_of_WINDS"},"data":[0,0,0,0,0,0,0,0,0,0,0,0,0,0,0,0,0,0,0,0,0,0,0,0,0,0,0,0,0,0,0,0,0,0,0,0,0,0,0,0,0,0,0,0,0,0,0,0,0,0,0,0,0,0,0,0,0,0,-5.3469,-5.3471,0,-5.3654,-5.3656,-5.3658,-5.3632,-5.3629,-5.3626,-5.3623,-5.3804,-5.3812,-5.3819,0,0,0,0,0,0,0,0,0,0,0,0,0,-5.3086,-5.3093,-5.3469,-5.3471,-5.3473,-5.3653,-5.3656,-5.3658,-5.3632,-5.3629,-5.3625,-5.3622,-5.3802,-5.3811,-5.382,0,0,0,0,0,0,0,0,0,0,0,0,0,-5.3259,-5.3095,-5.3468,-5.3482,-5.3485,-5.3653,-5.3656,-5.3659,-5.3633,-5.3629,-5.3624,-5.362,-5.3799,-5.381,-5.3821,-5.3984,0,0,-5.3857,-5.3862,0,0,0,0,0,0,0,0,-5.325,-5.3273,-5.3478,-5.3482,-5.3486,-5.3615,-5.3587,-5.3768,-5.3634,-5.3577,-5.3623,-5.3618,-5.3745,-5.376,-5.3805,-5.3993,-5.4001,-5.3858,-5.3865,-5.387,-5.3873,0,0,0,0,0,0,0,-5.3238,-5.3265,-5.3542,-5.3481,-5.3486,-5.3477,-5.3496,-5.3621,-5.3684,-5.3582,-5.358,-5.3603,-5.3746,-5.3794,-5.3809,-5.4003,-5.3857,-5.3868,-5.3875,-5.3879,-5.4333,-5.4338,0,0,0,0,0,0,-5.3223,-5.3256,-5.3536,-5.3547,-5.3354,-5.3488,-5.3509,-5.3578,-5.3683,-5.3694,-5.3606,-5.3601,-5.3776,-5.3795,-5.3815,-5.4013,-5.3869,-5.388,-5.3887,-5.4328,-5.4334,-5.434,0,0,0,0,0,0,-5.3215,-5.3248,-5.3528,-5.3401,-5.3436,-5.3499,-5.3576,-5.3584,-5.3632,-5.3702,-5.3712,-5.3645,-5.3773,-5.3799,-5.3943,-5.4019,-5.3885,-5.3896,-5.4322,-5.433,-5.4337,-5.4409,0,0,0,0,0,0,-5.3204,-5.3246,-5.331,-5.3403,-5.3443,-5.3656,-5.3581,-5.3591,-5.3653,-5.3648,-5.374,-5.3751,-5.3772,-5.3926,-5.3954,-5.4032,-5.3905,-5.4315,-5.4325,-5.4334,-5.44,-5.4419,-5.4434,0,0,0,0,0,-5.319,-5.3321,-5.3313,-5.3347,-5.3526,-5.366,-5.3683,-5.3707,-5.3659,-5.3724,-5.3768,-5.3748,-5.4006,-5.3941,-5.3973,-5.4055,-5.4311,-5.4322,-5.4334,-5.4393,-5.4415,-5.4434,0,0,0,0,0,0,-5.3233,-5.3334,-5.3326,-5.3492,-5.3568,-5.3656,-5.3737,-5.3729,-5.3818,-5.3809,-5.3832,-5.3853,-5.3999,-5.4041,-5.3967,-5.4218,-5.4151,-5.417,-5.4185,-5.4207,-5.4223,-5.421,-5.3915,0,0,0,0,0,-5.3262,-5.3366,-5.3447,-5.3585,-5.3624,-5.3674,-5.3734,-5.3746,-5.3824,-5.3856,-5.391,-5.3985,-5.4083,-5.4147,-5.4241,-5.4406,-5.4425,-5.4478,-5.4495,-5.4508,-5.4524,-5.4614,-5.4638,-5.4378,-5.4377,-5.4377,0,0,-5.3323,-5.3391,-5.3454,-5.3595,-5.3656,-5.376,-5.3701,-5.3814,-5.3891,-5.3872,-5.4012,-5.4055,-5.414,-5.4295,-5.4366,-5.4334,-5.46,-5.4523,-5.4533,-5.4542,-5.4628,-5.4653,-5.4675,-5.4385,-5.4384,-5.4383,0,0,-5.3487,-5.3549,-5.3671,-5.3733,-5.3826,-5.3859,-5.3888,-5.3977,-5.4006,-5.4147,-5.4135,-5.4225,-5.4393,-5.4454,-5.4507,-5.4694,-5.4678,-5.4723,-5.4811,-5.4898,-5.4919,-5.4937,-5.5003,-5.5027,-5.4738,-5.4739,-5.4739,0,-5.355,-5.3709,-5.3734,-5.3849,-5.3911,-5.39,-5.4023,-5.4081,-5.4199,-5.4241,-5.4204,-5.4415,-5.4471,-5.4641,-5.4686,-5.473,-5.4762,-5.4713,-5.4914,-5.4933,-5.495,-5.5014,-5.5039,-5.4744,-5.4743,-5.4742,-5.4742,0,-5.3782,-5.3892,-5.3979,-5.4097,-5.4168,-5.4286,-5.4326,-5.4395,-5.44,-5.4435,-5.4578,-5.4646,-5.4753,-5.4794,-5.4799,-5.4963,-5.4941,-5.4909,-5.4843,-5.498,-5.504,-5.5064,-5.4751,-5.4749,-5.4747,-5.4746,0,0,-5.3979,-5.4109,-5.414,-5.4193,-5.4295,-5.4379,-5.4495,-5.4603,-5.4661,-5.4742,-5.4839,-5.4982,-5.4953,-5.5013,-5.5025,-5.5101,-5.5244,-5.506,-5.5062,-5.5092,-5.5429,-5.5453,-5.5481,-5.5234,-5.5239,-5.5243,-5.5422,0,-5.4153,-5.4363,-5.4388,-5.4573,-5.4675,-5.4665,-5.4766,-5.4838,-5.4874,-5.4963,-5.5001,-5.5102,-5.5057,-5.5093,-5.5168,-5.5211,-5.5312,-5.5198,-5.5323,-5.5328,-5.5304,-5.5513,-5.5539,-5.5705,-5.5446,-5.545,-5.5453,0,-5.4385,-5.4475,-5.4671,-5.4759,-5.4803,-5.4894,-5.4994,-5.508,-5.516,-5.518,-5.5248,-5.525,-5.5367,-5.5296,-5.5457,-5.5379,-5.5431,-5.5459,-5.5466,-5.5479,-5.5399,-5.5531,-5.5758,-5.5783,-5.549,-5.5487,-5.5484,0,-5.4509,-5.4679,-5.4819,-5.4865,-5.497,-5.5034,-5.508,-5.5157,-5.5219,-5.5305,-5.5346,-5.5444,-5.5497,-5.5572,-5.5598,-5.5544,-5.5758,-5.5689,-5.5777,-5.5777,-5.5823,-5.582,-5.6062,-5.5856,-5.5856,-5.5855,-5.5855,0,-5.4701,-5.4822,-5.4877,-5.4963,-5.5096,-5.5123,-5.5254,-5.5296,-5.5364,-5.5456,-5.5452,-5.5538,-5.5568,-5.5658,-5.568,-5.581,-5.5833,-5.5852,-5.5856,-5.5853,-5.5851,-5.5888,-5.5877,-5.5862,-5.586,-5.5859,-5.5858,0,-5.4864,-5.4906,-5.5057,-5.5145,-5.517,-5.5265,-5.5338,-5.542,-5.5454,-5.5571,-5.5599,-5.5653,-5.5759,-5.5793,-5.5919,-5.5934,-5.6086,-5.6079,-5.606,-5.6061,-5.6147,-5.6138,-5.6422,-5.646,-5.6228,-5.623,-5.6232,0,-5.4984,-5.5077,-5.5176,-5.5239,-5.5288,-5.5389,-5.5454,-5.5482,-5.5549,-5.5647,-5.5717,-5.5822,-5.5908,-5.6077,-5.6125,-5.6222,-5.6218,-5.6311,-5.6233,-5.6226,-5.622,-5.6215,-5.6224,-5.6325,-5.6328,-5.633,-5.6331,0,-5.5194,-5.521,-5.5305,-5.5408,-5.5486,-5.5567,-5.5645,-5.5695,-5.5735,-5.5809,-5.592,-5.5986,-5.6117,-5.6221,-5.632,-5.6364,-5.6354,-5.6356,-5.6381,-5.6379,-5.6364,-5.6374,-5.61,-5.6349,-5.6347,-5.6346,-5.6345,-5.6344,-5.5339,-5.5422,-5.5504,-5.561,-5.5672,-5.5745,-5.5826,-5.5872,-5.5965,-5.6076,-5.6085,-5.6203,-5.6279,-5.6411,-5.646,-5.6551,-5.6525,-5.6561,-5.6571,-5.658,-5.6587,-5.6349,-5.6569,-5.6568,-5.6568,-5.6568,-5.6567,0,-5.5549,-5.5602,-5.5699,-5.581,-5.5892,-5.5878,-5.5963,-5.6033,-5.6138,-5.6211,-5.6296,-5.6422,-5.6522,-5.6579,-5.6679,-5.6741,-5.6738,-5.6766,-5.6762,-5.6772,-5.6605,-5.6573,-5.6766,-5.6766,-5.6766,-5.6766,-5.6766,-5.6766,-5.5668,-5.5807,-5.5832,-5.6001,-5.6051,-5.617,-5.622,-5.6286,-5.6345,-5.6486,-5.6571,-5.6608,-5.6674,-5.6778,-5.6869,-5.6883,-5.692,-5.6951,-5.6961,-5.6804,-5.6784,-5.6764,-5.6735,-5.6958,-5.6959,-5.7121,-5.7122,-5.7124]}]]